Wind_Speed
44 44 44 45 45 45 46 46 47 47 47 49 50 51 52 53 54 55 54 54 54 55 55 55 55 55 55 55 55 55 55 54 53 52 51 50 49 49 48 47 46 44 43
44 44 45 45 45 45 45 45 46 46 47 48 48 49 50 51 53 55 54 55 55 55 56 55 55 55 56 56 56 56 56 56 54 53 52 51 50 50 50 49 48 46 45
43 44 45 45 44 44 44 45 45 45 45 46 46 47 48 49 50 53 55 56 56 55 55 56 56 56 57 57 57 57 57 56 55 54 53 52 52 51 51 50 49 48 48
43 44 44 44 44 43 44 44 44 43 44 45 46 46 46 47 48 51 53 54 55 55 56 57 57 56 56 56 56 56 56 56 55 55 54 54 53 53 52 51 50 49 49
42 43 43 43 43 43 43 42 43 43 44 44 45 46 47 48 49 50 52 52 53 54 55 55 55 55 55 54 55 55 56 56 55 55 54 53 53 53 53 52 50 50 49
42 42 42 42 42 43 43 42 42 43 43 44 45 46 47 48 49 49 51 51 52 54 53 53 53 53 53 52 52 53 54 53 54 53 52 52 51 51 51 51 50 49 49
41 42 42 42 43 43 43 43 43 42 42 43 44 45 46 47 47 47 48 50 51 51 50 51 51 51 52 51 51 51 52 52 52 51 50 51 50 50 50 50 50 49 48
41 42 42 42 43 44 44 43 43 43 43 43 44 45 45 45 45 46 47 47 48 49 49 50 51 51 51 50 49 50 50 50 49 49 49 49 49 49 49 49 49 49 48
41 41 42 42 42 43 43 43 44 44 42 42 43 44 44 44 44 44 45 45 46 48 49 50 50 49 48 48 48 48 48 48 48 47 47 48 48 48 46 46 46 46 45
41 41 42 42 43 43 44 43 44 44 43 43 42 42 42 42 43 44 44 44 45 46 48 48 48 48 48 48 47 47 47 48 48 47 46 46 46 47 46 45 45 44 43
41 41 41 42 43 44 44 43 43 43 44 43 40 40 40 40 41 42 43 43 44 45 46 46 45 45 45 46 47 47 47 47 47 47 47 46 47 47 46 45 45 44 43
41 41 42 42 43 43 43 43 42 41 42 41 40 39 38 39 40 40 40 41 42 42 42 42 43 43 44 44 44 45 46 46 46 46 46 45 45 44 43 43 43 43 43
41 42 42 42 41 41 41 40 39 39 40 40 38 37 38 38 37 37 38 39 39 40 40 40 40 41 42 43 42 42 43 44 44 44 44 43 43 42 40 41 41 42 42
41 42 42 41 41 40 40 39 38 39 39 38 37 37 37 37 37 37 37 37 37 37 38 39 39 39 40 40 41 41 41 41 42 42 42 42 41 41 40 40 40 41 40
41 42 42 41 40 40 39 39 38 38 38 38 37 36 36 36 36 37 37 37 36 35 36 37 38 38 38 38 38 39 39 39 40 41 41 41 40 40 41 41 40 39 38
42 42 42 41 41 40 40 39 37 37 37 37 36 36 36 36 35 36 36 36 36 35 35 36 36 36 36 36 36 37 37 37 38 39 40 39 39 39 38 38 37 36 37
43 42 43 41 40 40 39 38 38 38 37 36 35 36 36 36 36 36 35 34 35 34 34 34 34 34 34 35 35 34 34 35 36 37 37 36 37 37 37 35 36 37 37
42 42 42 41 40 39 38 38 37 36 35 35 35 34 34 34 34 34 33 33 32 33 33 33 33 33 33 34 35 34 34 35 35 35 34 34 35 35 35 35 36 36 36
41 41 41 41 39 37 37 36 35 34 34 34 34 33 32 31 31 31 32 31 31 32 33 33 33 34 34 34 34 34 33 33 33 33 34 34 34 33 33 34 33 33 34
39 38 38 37 36 36 36 35 33 32 32 32 31 31 30 29 29 29 29 29 28 28 29 29 30 31 31 31 31 31 31 31 31 31 31 31 32 32 32 32 32 32 32
37 36 35 35 34 34 33 33 31 31 30 30 29 28 28 28 28 28 28 28 27 27 27 27 28 28 29 30 30 30 30 30 30 29 29 29 30 30 30 30 30 30 30
35 34 33 32 32 32 31 30 29 29 28 27 26 26 25 25 25 25 26 27 27 26 26 27 27 26 27 27 27 28 28 27 27 28 28 28 28 28 28 28 28 28 29
34 33 33 32 31 31 30 28 26 26 25 24 24 24 23 23 23 24 25 26 25 25 25 26 26 25 25 25 25 25 26 27 26 27 27 27 27 27 27 27 27 27 28
33 32 31 30 28 27 27 26 25 24 23 22 22 22 22 22 22 23 23 24 24 24 24 24 25 25 25 25 25 24 25 25 25 25 25 25 25 26 26 25 25 26 27
31 30 29 27 26 25 23 23 22 21 21 21 21 21 21 22 21 21 21 22 21 22 22 22 23 24 24 24 24 24 24 23 23 23 23 23 23 24 24 24 25 25 25
28 27 27 26 25 24 23 23 22 22 21 21 21 21 21 21 21 20 20 21 20 20 21 21 22 22 22 23 23 23 24 24 23 23 22 22 22 22 22 22 23 23 24
Wind_Direction
274 274 274 274 274 274 273 273 271 270 269 269 267 263 260 257 256 255 254 255 257 256 256 256 256 256 256 257 258 258 257 258 258 259 259 259 260 261 262 262 263 264 264
275 275 274 274 275 274 273 274 273 272 271 270 268 265 261 259 256 254 253 256 257 257 256 256 257 256 256 257 258 258 258 258 258 259 258 259 259 261 261 261 263 264 263
277 275 274 274 275 274 274 275 275 273 271 270 268 265 262 260 258 256 254 256 257 257 257 257 258 257 256 257 258 258 258 258 258 258 259 259 259 260 260 261 262 263 263
278 276 275 275 276 276 276 276 274 273 272 271 269 267 263 260 260 259 258 256 256 256 257 258 258 258 258 258 257 257 258 258 257 257 258 259 260 260 259 260 261 262 263
279 277 276 277 277 277 277 277 276 275 275 272 270 267 264 262 261 262 260 259 257 257 258 257 257 258 258 258 257 256 256 256 256 257 257 257 259 260 260 259 260 261 262
280 279 277 276 277 277 278 278 278 277 276 273 270 268 266 264 264 264 263 261 258 257 257 256 257 258 258 257 256 255 256 255 255 255 256 257 258 259 260 259 259 261 262
281 279 278 278 279 279 280 279 279 277 275 274 272 268 267 265 264 264 264 261 259 257 256 255 256 257 257 256 255 255 254 254 254 255 256 256 257 258 259 259 259 261 262
282 280 280 280 280 281 282 281 280 278 275 275 273 269 267 266 265 265 263 262 260 258 257 256 256 257 257 255 255 254 253 253 254 254 255 256 256 257 259 259 260 261 262
284 282 281 281 282 282 283 283 281 279 277 276 272 269 267 267 265 265 263 262 261 258 257 255 256 256 256 255 254 254 254 252 251 253 255 256 255 256 258 259 260 261 262
285 283 283 282 283 283 284 284 282 278 278 278 273 269 268 267 265 264 264 264 263 259 257 256 257 255 256 255 255 254 254 253 252 253 255 256 256 255 256 258 260 261 263
284 284 284 283 284 284 284 284 282 278 276 277 274 272 269 267 268 266 265 264 264 262 258 256 256 255 256 255 255 255 253 253 253 254 256 256 255 254 257 258 259 260 261
285 286 287 286 285 284 283 282 281 279 277 276 274 271 269 268 268 267 265 265 264 261 258 256 255 254 255 255 255 254 252 253 253 254 255 254 253 254 256 257 258 259 260
286 287 287 287 288 286 283 282 280 278 276 275 274 270 269 268 266 265 264 264 262 260 257 256 256 256 255 256 255 254 253 252 253 252 252 252 253 253 255 256 257 259 260
286 286 287 288 288 287 283 281 279 278 277 275 272 270 268 266 264 264 263 263 261 259 257 256 256 256 255 255 254 253 252 251 251 250 251 252 254 253 255 256 257 259 258
287 287 287 288 287 284 282 280 280 277 275 274 271 269 267 267 266 264 263 262 261 259 258 258 257 255 255 254 253 252 251 251 251 251 251 252 252 252 254 256 257 256 258
286 287 287 287 286 285 282 281 278 276 276 274 272 269 266 266 266 264 263 262 260 258 258 258 256 254 253 253 251 251 250 250 250 250 250 250 249 251 254 255 254 256 259
286 286 287 287 285 283 282 280 278 277 276 273 271 269 266 265 264 264 261 261 259 258 257 256 254 252 252 251 251 249 249 249 249 249 250 250 249 250 252 254 255 258 260
286 286 287 286 284 282 281 280 279 276 274 273 271 270 267 264 262 262 261 260 257 257 256 255 252 253 252 251 250 247 249 249 248 249 249 248 247 248 252 255 258 259 260
286 286 286 285 283 281 281 281 278 275 274 272 270 268 266 264 262 261 258 257 257 257 257 254 252 254 252 250 250 248 249 248 247 247 247 247 247 249 253 255 257 257 259
287 286 285 284 282 281 281 280 278 275 273 271 269 266 263 262 260 260 259 256 256 257 255 250 252 250 248 247 249 249 250 246 243 244 245 246 246 249 252 254 257 257 257
286 286 285 283 282 282 282 280 278 274 272 270 267 263 261 260 258 256 257 254 254 255 251 249 250 249 248 248 248 247 247 244 242 243 242 244 245 248 250 254 255 256 257
284 284 283 282 283 282 281 280 275 272 271 268 266 263 259 258 256 256 257 256 253 253 251 250 250 249 248 245 242 244 245 243 244 244 245 245 246 248 249 250 253 255 259
284 283 281 282 282 281 279 277 272 269 268 266 264 262 259 260 258 256 257 255 251 250 251 250 248 246 243 242 241 241 243 243 244 246 247 246 247 247 248 250 254 257 260
282 282 281 282 280 276 275 273 269 266 263 261 261 261 261 261 260 256 257 254 251 251 251 250 245 243 240 239 240 241 244 243 242 244 244 244 245 247 248 250 255 259 261
280 280 280 280 278 273 271 269 265 262 261 260 261 262 262 261 260 257 255 253 251 253 250 246 242 240 239 240 242 242 242 240 240 239 240 241 244 247 249 254 258 260 260
279 278 278 277 275 272 268 267 264 261 259 259 260 261 261 260 257 254 253 250 249 251 249 243 242 242 241 240 239 240 240 238 237 238 240 242 246 249 251 255 260 261 261
Height
5677 5677 5676 5675 5674 5673 5672 5671 5671 5670 5670 5669 5669 5671 5674 5677 5680 5683 5687 5689 5692 5695 5698 5702 5705 5709 5713 5716 5719 5722 5725 5727 5729 5732 5735 5738 5740 5742 5744 5746 5748 5750 5751
5665 5665 5664 5662 5661 5660 5659 5658 5657 5656 5656 5655 5655 5656 5658 5661 5665 5669 5673 5675 5678 5681 5685 5688 5691 5694 5698 5701 5704 5707 5710 5714 5716 5719 5722 5725 5729 5730 5732 5734 5736 5738 5740
5654 5653 5651 5650 5648 5647 5647 5646 5645 5644 5643 5642 5642 5643 5645 5648 5651 5655 5659 5661 5664 5667 5670 5673 5676 5680 5683 5686 5689 5692 5696 5700 5703 5705 5708 5712 5716 5718 5720 5722 5725 5727 5728
5642 5641 5639 5638 5637 5636 5634 5633 5633 5632 5631 5630 5630 5631 5633 5636 5639 5642 5645 5648 5650 5653 5655 5658 5662 5665 5668 5671 5674 5677 5681 5684 5688 5691 5694 5697 5701 5704 5708 5710 5712 5714 5716
5631 5630 5629 5627 5626 5624 5623 5622 5621 5620 5619 5619 5620 5620 5622 5625 5627 5629 5631 5634 5636 5639 5641 5644 5648 5650 5653 5656 5659 5663 5666 5669 5673 5677 5680 5683 5686 5689 5692 5697 5700 5702 5704
5621 5619 5618 5617 5615 5614 5612 5612 5611 5609 5608 5608 5608 5609 5611 5612 5614 5616 5618 5620 5623 5625 5628 5631 5634 5636 5639 5642 5645 5649 5652 5655 5659 5662 5666 5669 5673 5676 5679 5683 5686 5689 5692
5610 5608 5607 5607 5605 5604 5602 5601 5600 5599 5598 5598 5597 5597 5599 5600 5601 5603 5604 5607 5609 5612 5615 5618 5620 5623 5626 5628 5632 5635 5639 5642 5646 5649 5653 5656 5660 5663 5666 5669 5672 5676 5679
5600 5598 5597 5596 5595 5593 5592 5590 5588 5588 5587 5586 5585 5586 5586 5587 5589 5590 5591 5594 5596 5599 5602 5605 5607 5610 5613 5616 5619 5622 5626 5630 5633 5637 5640 5643 5647 5650 5653 5656 5659 5662 5666
5589 5587 5586 5586 5585 5583 5581 5579 5577 5575 5575 5574 5573 5574 5574 5575 5577 5578 5579 5581 5583 5586 5589 5592 5594 5597 5600 5603 5606 5610 5614 5617 5621 5625 5628 5631 5635 5638 5641 5644 5647 5650 5653
5578 5577 5576 5575 5574 5572 5571 5569 5567 5564 5563 5562 5562 5562 5563 5564 5565 5566 5567 5569 5571 5573 5576 5579 5581 5585 5588 5591 5594 5598 5602 5605 5609 5612 5615 5619 5623 5626 5629 5632 5635 5638 5641
5568 5567 5566 5564 5563 5561 5559 5558 5556 5554 5552 5551 5551 5551 5552 5553 5554 5555 5557 5558 5559 5561 5563 5566 5569 5573 5576 5579 5582 5586 5589 5593 5597 5600 5604 5607 5611 5614 5618 5621 5624 5627 5629
5558 5557 5555 5553 5552 5550 5548 5546 5544 5543 5542 5541 5541 5541 5542 5543 5544 5545 5547 5548 5549 5550 5552 5555 5558 5561 5564 5567 5570 5573 5577 5581 5585 5589 5592 5596 5599 5603 5606 5609 5613 5616 5618
5549 5547 5545 5543 5541 5539 5537 5535 5533 5532 5532 5531 5531 5531 5532 5533 5534 5536 5537 5537 5539 5540 5542 5544 5547 5550 5553 5556 5559 5561 5566 5569 5574 5577 5581 5585 5588 5592 5595 5599 5602 5604 5608
5540 5538 5536 5534 5531 5529 5527 5525 5524 5523 5522 5522 5522 5522 5522 5524 5525 5526 5527 5528 5529 5530 5532 5535 5537 5540 5542 5545 5548 5551 5555 5559 5563 5566 5570 5574 5577 5581 5585 5588 5591 5593 5597
5531 5528 5526 5524 5522 5519 5517 5516 5515 5514 5513 5513 5512 5513 5513 5514 5515 5516 5517 5518 5520 5521 5523 5525 5527 5529 5531 5535 5538 5541 5545 5549 5553 5556 5560 5563 5567 5571 5574 5577 5580 5583 5586
5521 5518 5516 5514 5511 5509 5507 5505 5505 5504 5503 5503 5503 5503 5504 5505 5506 5507 5508 5509 5511 5512 5514 5515 5517 5519 5522 5525 5529 5532 5535 5539 5542 5546 5550 5553 5557 5561 5565 5567 5570 5574 5577
5511 5509 5506 5503 5501 5498 5496 5495 5494 5494 5493 5493 5493 5494 5494 5496 5497 5498 5499 5500 5502 5503 5505 5506 5507 5510 5513 5516 5519 5522 5526 5529 5533 5537 5540 5544 5548 5552 5555 5558 5561 5565 5567
5501 5499 5495 5493 5490 5488 5486 5484 5483 5482 5482 5483 5483 5484 5485 5486 5487 5488 5490 5491 5493 5494 5496 5497 5499 5501 5504 5507 5510 5514 5517 5521 5524 5528 5532 5536 5540 5543 5547 5550 5553 5556 5558
5491 5488 5485 5482 5480 5478 5476 5475 5473 5472 5472 5472 5473 5474 5475 5476 5478 5480 5481 5483 5484 5486 5488 5489 5491 5493 5496 5499 5502 5505 5509 5513 5516 5520 5524 5528 5531 5535 5538 5541 5544 5547 5550
5480 5478 5475 5472 5470 5468 5467 5466 5465 5464 5464 5464 5464 5465 5466 5468 5470 5472 5473 5475 5477 5478 5480 5482 5484 5485 5488 5491 5494 5498 5501 5505 5508 5512 5516 5519 5523 5527 5529 5533 5536 5539 5541
5471 5469 5466 5463 5461 5460 5458 5457 5456 5456 5455 5455 5456 5457 5459 5460 5462 5464 5466 5468 5470 5471 5473 5475 5477 5479 5481 5484 5487 5490 5494 5497 5501 5504 5508 5512 5516 5519 5522 5525 5528 5530 5532
5463 5460 5458 5456 5454 5451 5450 5449 5448 5447 5447 5448 5449 5450 5451 5453 5456 5458 5459 5461 5463 5464 5466 5468 5470 5473 5475 5477 5480 5483 5487 5490 5494 5498 5502 5505 5508 5511 5514 5517 5520 5522 5524
5453 5452 5449 5448 5447 5444 5442 5442 5441 5441 5441 5442 5442 5444 5445 5447 5449 5451 5453 5454 5456 5457 5459 5461 5464 5466 5468 5471 5474 5477 5480 5484 5487 5491 5495 5498 5501 5504 5507 5510 5512 5514 5516
5445 5443 5441 5440 5439 5438 5436 5435 5435 5435 5435 5436 5437 5439 5440 5441 5443 5445 5446 5448 5450 5451 5453 5454 5457 5460 5462 5465 5469 5472 5475 5478 5481 5485 5488 5491 5494 5497 5500 5503 5505 5507 5509
5436 5435 5434 5433 5432 5431 5430 5430 5429 5430 5430 5431 5432 5433 5434 5436 5437 5438 5440 5442 5443 5444 5447 5449 5451 5454 5457 5460 5463 5466 5469 5472 5476 5479 5482 5485 5488 5491 5493 5496 5498 5500 5501
5427 5426 5426 5425 5424 5424 5424 5423 5423 5424 5424 5426 5427 5428 5429 5430 5432 5433 5435 5435 5437 5438 5440 5442 5445 5448 5451 5454 5457 5461 5464 5467 5470 5474 5477 5479 5482 5485 5487 5490 5491 5493 5495